owner,sensor,date,latitude,longitude,vertical_datum,sea_water_temperature,qcFlag 
SCCF RECON,ioos:station:SCCF:51:1,2012-01-01T00:00:00Z,26.5545,-82.1715,1.8,20.29,2 
SCCF RECON,ioos:station:SCCF:51:1,2012-01-01T01:00:00Z,26.5545,-82.1715,1.8,20.08,2 
SCCF RECON,ioos:station:SCCF:51:1,2012-01-01T02:00:00Z,26.5545,-82.1715,1.8,20.19,2 
SCCF RECON,ioos:station:SCCF:51:1,2012-01-01T03:00:00Z,26.5545,-82.1715,1.8,20.23,2 
SCCF RECON,ioos:station:SCCF:51:1,2012-01-01T04:00:00Z,26.5545,-82.1715,1.8,20.32,2 
SCCF RECON,ioos:station:SCCF:51:1,2012-01-01T05:00:00Z,26.5545,-82.1715,1.8,20.41,2 
SCCF RECON,ioos:station:SCCF:51:1,2012-01-01T06:00:00Z,26.5545,-82.1715,1.8,20.28,2 
SCCF RECON,ioos:station:SCCF:51:1,2012-01-01T07:00:00Z,26.5545,-82.1715,1.8,20.15,2 
SCCF RECON,ioos:station:SCCF:51:1,2012-01-01T08:00:00Z,26.5545,-82.1715,1.8,20.08,2 
SCCF RECON,ioos:station:SCCF:51:1,2012-01-01T09:00:00Z,26.5545,-82.1715,1.8,19.96,2 
SCCF RECON,ioos:station:SCCF:51:1,2012-01-01T10:00:00Z,26.5545,-82.1715,1.8,19.85,2 
SCCF RECON,ioos:station:SCCF:51:1,2012-01-01T11:00:00Z,26.5545,-82.1715,1.8,19.85,2 
SCCF RECON,ioos:station:SCCF:51:1,2012-01-01T12:00:00Z,26.5545,-82.1715,1.8,19.82,2 
SCCF RECON,ioos:station:SCCF:51:1,2012-01-01T13:00:00Z,26.5545,-82.1715,1.8,19.88,2 
SCCF RECON,ioos:station:SCCF:51:1,2012-01-01T14:00:00Z,26.5545,-82.1715,1.8,20.06,2 
SCCF RECON,ioos:station:SCCF:51:1,2012-01-01T15:00:00Z,26.5545,-82.1715,1.8,20.2,2 
SCCF RECON,ioos:station:SCCF:51:1,2012-01-01T16:00:00Z,26.5545,-82.1715,1.8,20.33,2 
SCCF RECON,ioos:station:SCCF:51:1,2012-01-01T17:00:00Z,26.5545,-82.1715,1.8,20.43,2 
SCCF RECON,ioos:station:SCCF:51:1,2012-01-01T18:00:00Z,26.5545,-82.1715,1.8,20.26,2 
SCCF RECON,ioos:station:SCCF:51:1,2012-01-01T19:00:00Z,26.5545,-82.1715,1.8,20.33,2 
SCCF RECON,ioos:station:SCCF:51:1,2012-01-01T20:00:00Z,26.5545,-82.1715,1.8,20.73,2 
SCCF RECON,ioos:station:SCCF:51:1,2012-01-01T21:00:00Z,26.5545,-82.1715,1.8,20.55,2 
SCCF RECON,ioos:station:SCCF:51:1,2012-01-01T22:00:00Z,26.5545,-82.1715,1.8,20.77,2 
SCCF RECON,ioos:station:SCCF:51:1,2012-01-01T23:00:00Z,26.5545,-82.1715,1.8,20.61,2 
SCCF RECON,ioos:station:SCCF:51:1,2012-01-02T00:00:00Z,26.5545,-82.1715,1.8,20.72,2 
SCCF RECON,ioos:station:SCCF:51:1,2012-01-02T01:00:00Z,26.5545,-82.1715,1.8,20.54,2 
SCCF RECON,ioos:station:SCCF:51:1,2012-01-02T02:00:00Z,26.5545,-82.1715,1.8,20.71,2 
SCCF RECON,ioos:station:SCCF:51:1,2012-01-02T03:00:00Z,26.5545,-82.1715,1.8,20.6,2 
SCCF RECON,ioos:station:SCCF:51:1,2012-01-02T04:00:00Z,26.5545,-82.1715,1.8,20.6,2 
SCCF RECON,ioos:station:SCCF:51:1,2012-01-02T05:00:00Z,26.5545,-82.1715,1.8,20.64,2 
SCCF RECON,ioos:station:SCCF:51:1,2012-01-02T06:00:00Z,26.5545,-82.1715,1.8,20.63,2 
SCCF RECON,ioos:station:SCCF:51:1,2012-01-02T07:00:00Z,26.5545,-82.1715,1.8,20.6,2 
SCCF RECON,ioos:station:SCCF:51:1,2012-01-02T08:00:00Z,26.5545,-82.1715,1.8,20.53,2 
SCCF RECON,ioos:station:SCCF:51:1,2012-01-02T09:00:00Z,26.5545,-82.1715,1.8,20.47,2 
SCCF RECON,ioos:station:SCCF:51:1,2012-01-02T10:00:00Z,26.5545,-82.1715,1.8,20.32,2 
SCCF RECON,ioos:station:SCCF:51:1,2012-01-02T11:00:00Z,26.5545,-82.1715,1.8,20.31,2 
SCCF RECON,ioos:station:SCCF:51:1,2012-01-02T12:00:00Z,26.5545,-82.1715,1.8,20.36,2 
SCCF RECON,ioos:station:SCCF:51:1,2012-01-02T13:00:00Z,26.5545,-82.1715,1.8,20.31,2 
SCCF RECON,ioos:station:SCCF:51:1,2012-01-02T14:00:00Z,26.5545,-82.1715,1.8,20.28,2 
SCCF RECON,ioos:station:SCCF:51:1,2012-01-02T15:00:00Z,26.5545,-82.1715,1.8,20.35,2 
SCCF RECON,ioos:station:SCCF:51:1,2012-01-02T16:00:00Z,26.5545,-82.1715,1.8,20.4,2 
SCCF RECON,ioos:station:SCCF:51:1,2012-01-02T17:00:00Z,26.5545,-82.1715,1.8,20.43,2 
SCCF RECON,ioos:station:SCCF:51:1,2012-01-02T18:00:00Z,26.5545,-82.1715,1.8,20.55,2 
SCCF RECON,ioos:station:SCCF:51:1,2012-01-02T19:00:00Z,26.5545,-82.1715,1.8,20.63,2 
SCCF RECON,ioos:station:SCCF:51:1,2012-01-02T20:00:00Z,26.5545,-82.1715,1.8,20.58,2 
SCCF RECON,ioos:station:SCCF:51:1,2012-01-02T21:00:00Z,26.5545,-82.1715,1.8,20.45,2 
SCCF RECON,ioos:station:SCCF:51:1,2012-01-02T22:00:00Z,26.5545,-82.1715,1.8,20.5,2 
SCCF RECON,ioos:station:SCCF:51:1,2012-01-02T23:00:00Z,26.5545,-82.1715,1.8,20.37,2 
SCCF RECON,ioos:station:SCCF:51:1,2012-01-03T00:00:00Z,26.5545,-82.1715,1.8,20.16,2 
SCCF RECON,ioos:station:SCCF:51:1,2012-01-03T01:00:00Z,26.5545,-82.1715,1.8,20.07,2 
SCCF RECON,ioos:station:SCCF:51:1,2012-01-03T02:00:00Z,26.5545,-82.1715,1.8,19.96,2 
SCCF RECON,ioos:station:SCCF:51:1,2012-01-03T03:00:00Z,26.5545,-82.1715,1.8,19.87,2 
SCCF RECON,ioos:station:SCCF:51:1,2012-01-03T04:00:00Z,26.5545,-82.1715,1.8,19.72,2 
SCCF RECON,ioos:station:SCCF:51:1,2012-01-03T05:00:00Z,26.5545,-82.1715,1.8,19.55,2 
SCCF RECON,ioos:station:SCCF:51:1,2012-01-03T06:00:00Z,26.5545,-82.1715,1.8,19.4,2 
SCCF RECON,ioos:station:SCCF:51:1,2012-01-03T07:00:00Z,26.5545,-82.1715,1.8,19.21,2 
SCCF RECON,ioos:station:SCCF:51:1,2012-01-03T08:00:00Z,26.5545,-82.1715,1.8,18.97,2 
SCCF RECON,ioos:station:SCCF:51:1,2012-01-03T09:00:00Z,26.5545,-82.1715,1.8,18.76,2 
SCCF RECON,ioos:station:SCCF:51:1,2012-01-03T10:00:00Z,26.5545,-82.1715,1.8,18.6,2 
SCCF RECON,ioos:station:SCCF:51:1,2012-01-03T11:00:00Z,26.5545,-82.1715,1.8,18.46,2 
SCCF RECON,ioos:station:SCCF:51:1,2012-01-03T12:00:00Z,26.5545,-82.1715,1.8,18.02,2 
SCCF RECON,ioos:station:SCCF:51:1,2012-01-03T13:00:00Z,26.5545,-82.1715,1.8,18.0,2 
SCCF RECON,ioos:station:SCCF:51:1,2012-01-03T14:00:00Z,26.5545,-82.1715,1.8,17.86,2 
SCCF RECON,ioos:station:SCCF:51:1,2012-01-03T15:00:00Z,26.5545,-82.1715,1.8,17.7,2 
SCCF RECON,ioos:station:SCCF:51:1,2012-01-03T16:00:00Z,26.5545,-82.1715,1.8,17.44,2 
SCCF RECON,ioos:station:SCCF:51:1,2012-01-03T17:00:00Z,26.5545,-82.1715,1.8,17.29,2 
SCCF RECON,ioos:station:SCCF:51:1,2012-01-03T18:00:00Z,26.5545,-82.1715,1.8,17.27,2 
SCCF RECON,ioos:station:SCCF:51:1,2012-01-03T19:00:00Z,26.5545,-82.1715,1.8,17.3,2 
SCCF RECON,ioos:station:SCCF:51:1,2012-01-03T20:00:00Z,26.5545,-82.1715,1.8,17.76,2 
SCCF RECON,ioos:station:SCCF:51:1,2012-01-03T21:00:00Z,26.5545,-82.1715,1.8,17.86,2 
SCCF RECON,ioos:station:SCCF:51:1,2012-01-03T22:00:00Z,26.5545,-82.1715,1.8,17.86,2 
SCCF RECON,ioos:station:SCCF:51:1,2012-01-03T23:00:00Z,26.5545,-82.1715,1.8,17.68,2 
SCCF RECON,ioos:station:SCCF:51:1,2012-01-04T00:00:00Z,26.5545,-82.1715,1.8,17.34,2 
SCCF RECON,ioos:station:SCCF:51:1,2012-01-04T01:00:00Z,26.5545,-82.1715,1.8,17.15,2 
SCCF RECON,ioos:station:SCCF:51:1,2012-01-04T02:00:00Z,26.5545,-82.1715,1.8,16.82,2 
SCCF RECON,ioos:station:SCCF:51:1,2012-01-04T03:00:00Z,26.5545,-82.1715,1.8,16.67,2 
SCCF RECON,ioos:station:SCCF:51:1,2012-01-04T04:00:00Z,26.5545,-82.1715,1.8,16.57,2 
SCCF RECON,ioos:station:SCCF:51:1,2012-01-04T05:00:00Z,26.5545,-82.1715,1.8,16.74,2 
SCCF RECON,ioos:station:SCCF:51:1,2012-01-04T06:00:00Z,26.5545,-82.1715,1.8,16.67,2 
SCCF RECON,ioos:station:SCCF:51:1,2012-01-04T07:00:00Z,26.5545,-82.1715,1.8,16.5,2 
SCCF RECON,ioos:station:SCCF:51:1,2012-01-04T08:00:00Z,26.5545,-82.1715,1.8,16.24,2 
SCCF RECON,ioos:station:SCCF:51:1,2012-01-04T09:00:00Z,26.5545,-82.1715,1.8,16.01,2 
SCCF RECON,ioos:station:SCCF:51:1,2012-01-04T10:00:00Z,26.5545,-82.1715,1.8,15.82,2 
SCCF RECON,ioos:station:SCCF:51:1,2012-01-04T11:00:00Z,26.5545,-82.1715,1.8,15.52,2 
SCCF RECON,ioos:station:SCCF:51:1,2012-01-04T12:00:00Z,26.5545,-82.1715,1.8,15.16,2 
SCCF RECON,ioos:station:SCCF:51:1,2012-01-04T13:00:00Z,26.5545,-82.1715,1.8,14.84,2 
SCCF RECON,ioos:station:SCCF:51:1,2012-01-04T14:00:00Z,26.5545,-82.1715,1.8,14.39,2 
SCCF RECON,ioos:station:SCCF:51:1,2012-01-04T15:00:00Z,26.5545,-82.1715,1.8,15.52,2 
SCCF RECON,ioos:station:SCCF:51:1,2012-01-04T16:00:00Z,26.5545,-82.1715,1.8,14.84,2 
SCCF RECON,ioos:station:SCCF:51:1,2012-01-04T17:00:00Z,26.5545,-82.1715,1.8,16.05,2 
SCCF RECON,ioos:station:SCCF:51:1,2012-01-04T18:00:00Z,26.5545,-82.1715,1.8,16.39,2 
SCCF RECON,ioos:station:SCCF:51:1,2012-01-04T19:00:00Z,26.5545,-82.1715,1.8,16.19,2 
SCCF RECON,ioos:station:SCCF:51:1,2012-01-04T20:00:00Z,26.5545,-82.1715,1.8,16.21,2 
SCCF RECON,ioos:station:SCCF:51:1,2012-01-04T21:00:00Z,26.5545,-82.1715,1.8,16.34,2 
SCCF RECON,ioos:station:SCCF:51:1,2012-01-04T22:00:00Z,26.5545,-82.1715,1.8,16.5,2 
SCCF RECON,ioos:station:SCCF:51:1,2012-01-04T23:00:00Z,26.5545,-82.1715,1.8,15.7,2 
SCCF RECON,ioos:station:SCCF:51:1,2012-01-05T00:00:00Z,26.5545,-82.1715,1.8,15.84,2 
SCCF RECON,ioos:station:SCCF:51:1,2012-01-05T01:00:00Z,26.5545,-82.1715,1.8,16.09,2 
SCCF RECON,ioos:station:SCCF:51:1,2012-01-05T02:00:00Z,26.5545,-82.1715,1.8,16.46,2 
SCCF RECON,ioos:station:SCCF:51:1,2012-01-05T03:00:00Z,26.5545,-82.1715,1.8,16.35,2 
SCCF RECON,ioos:station:SCCF:51:1,2012-01-05T04:00:00Z,26.5545,-82.1715,1.8,15.18,2 
SCCF RECON,ioos:station:SCCF:51:1,2012-01-05T05:00:00Z,26.5545,-82.1715,1.8,14.69,2 
SCCF RECON,ioos:station:SCCF:51:1,2012-01-05T06:00:00Z,26.5545,-82.1715,1.8,14.72,2 
SCCF RECON,ioos:station:SCCF:51:1,2012-01-05T07:00:00Z,26.5545,-82.1715,1.8,15.24,2 
SCCF RECON,ioos:station:SCCF:51:1,2012-01-05T08:00:00Z,26.5545,-82.1715,1.8,15.77,2 
SCCF RECON,ioos:station:SCCF:51:1,2012-01-05T09:00:00Z,26.5545,-82.1715,1.8,14.99,2 
SCCF RECON,ioos:station:SCCF:51:1,2012-01-05T10:00:00Z,26.5545,-82.1715,1.8,14.57,2 
SCCF RECON,ioos:station:SCCF:51:1,2012-01-05T11:00:00Z,26.5545,-82.1715,1.8,14.34,2 
SCCF RECON,ioos:station:SCCF:51:1,2012-01-05T12:00:00Z,26.5545,-82.1715,1.8,14.41,2 
SCCF RECON,ioos:station:SCCF:51:1,2012-01-05T13:00:00Z,26.5545,-82.1715,1.8,14.18,2 
SCCF RECON,ioos:station:SCCF:51:1,2012-01-05T14:00:00Z,26.5545,-82.1715,1.8,14.58,2 
SCCF RECON,ioos:station:SCCF:51:1,2012-01-05T15:00:00Z,26.5545,-82.1715,1.8,15.26,2 
SCCF RECON,ioos:station:SCCF:51:1,2012-01-05T16:00:00Z,26.5545,-82.1715,1.8,15.14,2 
SCCF RECON,ioos:station:SCCF:51:1,2012-01-05T17:00:00Z,26.5545,-82.1715,1.8,15.2,2 
SCCF RECON,ioos:station:SCCF:51:1,2012-01-05T18:00:00Z,26.5545,-82.1715,1.8,15.47,2 
SCCF RECON,ioos:station:SCCF:51:1,2012-01-05T19:00:00Z,26.5545,-82.1715,1.8,15.21,2 
SCCF RECON,ioos:station:SCCF:51:1,2012-01-05T20:00:00Z,26.5545,-82.1715,1.8,15.49,2 
SCCF RECON,ioos:station:SCCF:51:1,2012-01-05T21:00:00Z,26.5545,-82.1715,1.8,15.67,2 
SCCF RECON,ioos:station:SCCF:51:1,2012-01-05T22:00:00Z,26.5545,-82.1715,1.8,16.41,2 
SCCF RECON,ioos:station:SCCF:51:1,2012-01-05T23:00:00Z,26.5545,-82.1715,1.8,15.72,2 
SCCF RECON,ioos:station:SCCF:51:1,2012-01-06T00:00:00Z,26.5545,-82.1715,1.8,16.53,2 
SCCF RECON,ioos:station:SCCF:51:1,2012-01-06T01:00:00Z,26.5545,-82.1715,1.8,16.43,2 
SCCF RECON,ioos:station:SCCF:51:1,2012-01-06T02:00:00Z,26.5545,-82.1715,1.8,16.34,2 
SCCF RECON,ioos:station:SCCF:51:1,2012-01-06T03:00:00Z,26.5545,-82.1715,1.8,16.33,2 
SCCF RECON,ioos:station:SCCF:51:1,2012-01-06T04:00:00Z,26.5545,-82.1715,1.8,16.37,2 
SCCF RECON,ioos:station:SCCF:51:1,2012-01-06T05:00:00Z,26.5545,-82.1715,1.8,15.85,2 
SCCF RECON,ioos:station:SCCF:51:1,2012-01-06T06:00:00Z,26.5545,-82.1715,1.8,15.92,2 
SCCF RECON,ioos:station:SCCF:51:1,2012-01-06T07:00:00Z,26.5545,-82.1715,1.8,15.42,2 
SCCF RECON,ioos:station:SCCF:51:1,2012-01-06T08:00:00Z,26.5545,-82.1715,1.8,15.04,2 
SCCF RECON,ioos:station:SCCF:51:1,2012-01-06T09:00:00Z,26.5545,-82.1715,1.8,14.92,2 
SCCF RECON,ioos:station:SCCF:51:1,2012-01-06T10:00:00Z,26.5545,-82.1715,1.8,14.92,2 
SCCF RECON,ioos:station:SCCF:51:1,2012-01-06T11:00:00Z,26.5545,-82.1715,1.8,14.9,2 
SCCF RECON,ioos:station:SCCF:51:1,2012-01-06T12:00:00Z,26.5545,-82.1715,1.8,14.73,2 
SCCF RECON,ioos:station:SCCF:51:1,2012-01-06T13:00:00Z,26.5545,-82.1715,1.8,14.96,2 
SCCF RECON,ioos:station:SCCF:51:1,2012-01-06T14:00:00Z,26.5545,-82.1715,1.8,15.65,2 
SCCF RECON,ioos:station:SCCF:51:1,2012-01-06T15:00:00Z,26.5545,-82.1715,1.8,15.41,2 
SCCF RECON,ioos:station:SCCF:51:1,2012-01-06T16:00:00Z,26.5545,-82.1715,1.8,15.82,2 
SCCF RECON,ioos:station:SCCF:51:1,2012-01-06T17:00:00Z,26.5545,-82.1715,1.8,16.21,2 
SCCF RECON,ioos:station:SCCF:51:1,2012-01-06T18:00:00Z,26.5545,-82.1715,1.8,16.64,2 
SCCF RECON,ioos:station:SCCF:51:1,2012-01-06T19:00:00Z,26.5545,-82.1715,1.8,16.12,2 
SCCF RECON,ioos:station:SCCF:51:1,2012-01-06T20:00:00Z,26.5545,-82.1715,1.8,16.08,2 
SCCF RECON,ioos:station:SCCF:51:1,2012-01-06T21:00:00Z,26.5545,-82.1715,1.8,15.68,2 
SCCF RECON,ioos:station:SCCF:51:1,2012-01-06T22:00:00Z,26.5545,-82.1715,1.8,16.47,2 
SCCF RECON,ioos:station:SCCF:51:1,2012-01-06T23:00:00Z,26.5545,-82.1715,1.8,16.41,2 
SCCF RECON,ioos:station:SCCF:51:1,2012-01-07T00:00:00Z,26.5545,-82.1715,1.8,16.78,2 
SCCF RECON,ioos:station:SCCF:51:1,2012-01-07T01:00:00Z,26.5545,-82.1715,1.8,17.08,2 
SCCF RECON,ioos:station:SCCF:51:1,2012-01-07T02:00:00Z,26.5545,-82.1715,1.8,17.39,2 
SCCF RECON,ioos:station:SCCF:51:1,2012-01-07T03:00:00Z,26.5545,-82.1715,1.8,17.38,2 
SCCF RECON,ioos:station:SCCF:51:1,2012-01-07T04:00:00Z,26.5545,-82.1715,1.8,17.38,2 
SCCF RECON,ioos:station:SCCF:51:1,2012-01-07T05:00:00Z,26.5545,-82.1715,1.8,16.94,2 
SCCF RECON,ioos:station:SCCF:51:1,2012-01-07T06:00:00Z,26.5545,-82.1715,1.8,16.64,2 
SCCF RECON,ioos:station:SCCF:51:1,2012-01-07T07:00:00Z,26.5545,-82.1715,1.8,15.6,2 
SCCF RECON,ioos:station:SCCF:51:1,2012-01-07T08:00:00Z,26.5545,-82.1715,1.8,15.52,2 
SCCF RECON,ioos:station:SCCF:51:1,2012-01-07T09:00:00Z,26.5545,-82.1715,1.8,15.55,2 
SCCF RECON,ioos:station:SCCF:51:1,2012-01-07T10:00:00Z,26.5545,-82.1715,1.8,15.47,2 
SCCF RECON,ioos:station:SCCF:51:1,2012-01-07T11:00:00Z,26.5545,-82.1715,1.8,15.47,2 
SCCF RECON,ioos:station:SCCF:51:1,2012-01-07T12:00:00Z,26.5545,-82.1715,1.8,15.68,2 
SCCF RECON,ioos:station:SCCF:51:1,2012-01-07T13:00:00Z,26.5545,-82.1715,1.8,15.63,2 
SCCF RECON,ioos:station:SCCF:51:1,2012-01-07T14:00:00Z,26.5545,-82.1715,1.8,15.54,2 
SCCF RECON,ioos:station:SCCF:51:1,2012-01-07T15:00:00Z,26.5545,-82.1715,1.8,16.46,2 
SCCF RECON,ioos:station:SCCF:51:1,2012-01-07T16:00:00Z,26.5545,-82.1715,1.8,16.22,2 
SCCF RECON,ioos:station:SCCF:51:1,2012-01-07T17:00:00Z,26.5545,-82.1715,1.8,16.99,2 
SCCF RECON,ioos:station:SCCF:51:1,2012-01-07T18:00:00Z,26.5545,-82.1715,1.8,17.17,2 
SCCF RECON,ioos:station:SCCF:51:1,2012-01-07T19:00:00Z,26.5545,-82.1715,1.8,17.07,2 
SCCF RECON,ioos:station:SCCF:51:1,2012-01-07T20:00:00Z,26.5545,-82.1715,1.8,16.45,2 
SCCF RECON,ioos:station:SCCF:51:1,2012-01-07T21:00:00Z,26.5545,-82.1715,1.8,16.37,2 
SCCF RECON,ioos:station:SCCF:51:1,2012-01-07T22:00:00Z,26.5545,-82.1715,1.8,16.71,2 
SCCF RECON,ioos:station:SCCF:51:1,2012-01-07T23:00:00Z,26.5545,-82.1715,1.8,16.73,2 
SCCF RECON,ioos:station:SCCF:51:1,2012-01-08T00:00:00Z,26.5545,-82.1715,1.8,16.85,2 
SCCF RECON,ioos:station:SCCF:51:1,2012-01-08T01:00:00Z,26.5545,-82.1715,1.8,17.44,2 
SCCF RECON,ioos:station:SCCF:51:1,2012-01-08T02:00:00Z,26.5545,-82.1715,1.8,17.83,2 
SCCF RECON,ioos:station:SCCF:51:1,2012-01-08T03:00:00Z,26.5545,-82.1715,1.8,17.76,2 
SCCF RECON,ioos:station:SCCF:51:1,2012-01-08T04:00:00Z,26.5545,-82.1715,1.8,17.76,2 
SCCF RECON,ioos:station:SCCF:51:1,2012-01-08T05:00:00Z,26.5545,-82.1715,1.8,17.77,2 
SCCF RECON,ioos:station:SCCF:51:1,2012-01-08T06:00:00Z,26.5545,-82.1715,1.8,17.72,2 
SCCF RECON,ioos:station:SCCF:51:1,2012-01-08T07:00:00Z,26.5545,-82.1715,1.8,16.98,2 
SCCF RECON,ioos:station:SCCF:51:1,2012-01-08T08:00:00Z,26.5545,-82.1715,1.8,16.67,2 
SCCF RECON,ioos:station:SCCF:51:1,2012-01-08T09:00:00Z,26.5545,-82.1715,1.8,16.46,2 
SCCF RECON,ioos:station:SCCF:51:1,2012-01-08T10:00:00Z,26.5545,-82.1715,1.8,16.45,2 
SCCF RECON,ioos:station:SCCF:51:1,2012-01-08T11:00:00Z,26.5545,-82.1715,1.8,16.41,2 
SCCF RECON,ioos:station:SCCF:51:1,2012-01-08T12:00:00Z,26.5545,-82.1715,1.8,16.47,2 
SCCF RECON,ioos:station:SCCF:51:1,2012-01-08T13:00:00Z,26.5545,-82.1715,1.8,16.49,2 
SCCF RECON,ioos:station:SCCF:51:1,2012-01-08T14:00:00Z,26.5545,-82.1715,1.8,16.46,2 
SCCF RECON,ioos:station:SCCF:51:1,2012-01-08T15:00:00Z,26.5545,-82.1715,1.8,16.57,2 
SCCF RECON,ioos:station:SCCF:51:1,2012-01-08T16:00:00Z,26.5545,-82.1715,1.8,17.25,2 
SCCF RECON,ioos:station:SCCF:51:1,2012-01-08T17:00:00Z,26.5545,-82.1715,1.8,17.02,2 
SCCF RECON,ioos:station:SCCF:51:1,2012-01-08T18:00:00Z,26.5545,-82.1715,1.8,17.56,2 
SCCF RECON,ioos:station:SCCF:51:1,2012-01-08T19:00:00Z,26.5545,-82.1715,1.8,17.6,2 
SCCF RECON,ioos:station:SCCF:51:1,2012-01-08T20:00:00Z,26.5545,-82.1715,1.8,17.49,2 
SCCF RECON,ioos:station:SCCF:51:1,2012-01-08T21:00:00Z,26.5545,-82.1715,1.8,17.02,2 
SCCF RECON,ioos:station:SCCF:51:1,2012-01-08T22:00:00Z,26.5545,-82.1715,1.8,16.94,2 
SCCF RECON,ioos:station:SCCF:51:1,2012-01-08T23:00:00Z,26.5545,-82.1715,1.8,16.95,2 
SCCF RECON,ioos:station:SCCF:51:1,2012-01-09T00:00:00Z,26.5545,-82.1715,1.8,16.94,2 
SCCF RECON,ioos:station:SCCF:51:1,2012-01-09T01:00:00Z,26.5545,-82.1715,1.8,17.28,2 
SCCF RECON,ioos:station:SCCF:51:1,2012-01-09T02:00:00Z,26.5545,-82.1715,1.8,17.96,2 
SCCF RECON,ioos:station:SCCF:51:1,2012-01-09T03:00:00Z,26.5545,-82.1715,1.8,18.09,2 
SCCF RECON,ioos:station:SCCF:51:1,2012-01-09T04:00:00Z,26.5545,-82.1715,1.8,17.97,2 
SCCF RECON,ioos:station:SCCF:51:1,2012-01-09T05:00:00Z,26.5545,-82.1715,1.8,17.92,2 
SCCF RECON,ioos:station:SCCF:51:1,2012-01-09T06:00:00Z,26.5545,-82.1715,1.8,17.99,2 
SCCF RECON,ioos:station:SCCF:51:1,2012-01-09T07:00:00Z,26.5545,-82.1715,1.8,17.96,2 
SCCF RECON,ioos:station:SCCF:51:1,2012-01-09T08:00:00Z,26.5545,-82.1715,1.8,17.1,2 
SCCF RECON,ioos:station:SCCF:51:1,2012-01-09T09:00:00Z,26.5545,-82.1715,1.8,17.08,2 
SCCF RECON,ioos:station:SCCF:51:1,2012-01-09T10:00:00Z,26.5545,-82.1715,1.8,17.11,2 
SCCF RECON,ioos:station:SCCF:51:1,2012-01-09T11:00:00Z,26.5545,-82.1715,1.8,17.01,2 
SCCF RECON,ioos:station:SCCF:51:1,2012-01-09T12:00:00Z,26.5545,-82.1715,1.8,17.14,2 
SCCF RECON,ioos:station:SCCF:51:1,2012-01-09T13:00:00Z,26.5545,-82.1715,1.8,17.22,2 
SCCF RECON,ioos:station:SCCF:51:1,2012-01-09T14:00:00Z,26.5545,-82.1715,1.8,17.36,2 
SCCF RECON,ioos:station:SCCF:51:1,2012-01-09T15:00:00Z,26.5545,-82.1715,1.8,17.18,2 
SCCF RECON,ioos:station:SCCF:51:1,2012-01-09T16:00:00Z,26.5545,-82.1715,1.8,17.63,2 
SCCF RECON,ioos:station:SCCF:51:1,2012-01-09T17:00:00Z,26.5545,-82.1715,1.8,17.93,2 
SCCF RECON,ioos:station:SCCF:51:1,2012-01-09T18:00:00Z,26.5545,-82.1715,1.8,17.88,2 
SCCF RECON,ioos:station:SCCF:51:1,2012-01-09T19:00:00Z,26.5545,-82.1715,1.8,18.05,2 
SCCF RECON,ioos:station:SCCF:51:1,2012-01-09T20:00:00Z,26.5545,-82.1715,1.8,18.07,2 
SCCF RECON,ioos:station:SCCF:51:1,2012-01-09T21:00:00Z,26.5545,-82.1715,1.8,18.07,2 
SCCF RECON,ioos:station:SCCF:51:1,2012-01-09T22:00:00Z,26.5545,-82.1715,1.8,17.8,2 
SCCF RECON,ioos:station:SCCF:51:1,2012-01-09T23:00:00Z,26.5545,-82.1715,1.8,17.71,2 
SCCF RECON,ioos:station:SCCF:51:1,2012-01-10T00:00:00Z,26.5545,-82.1715,1.8,17.82,2 
SCCF RECON,ioos:station:SCCF:51:1,2012-01-10T01:00:00Z,26.5545,-82.1715,1.8,18.06,2 
SCCF RECON,ioos:station:SCCF:51:1,2012-01-10T02:00:00Z,26.5545,-82.1715,1.8,18.3,2 
SCCF RECON,ioos:station:SCCF:51:1,2012-01-10T03:00:00Z,26.5545,-82.1715,1.8,18.48,2 
SCCF RECON,ioos:station:SCCF:51:1,2012-01-10T04:00:00Z,26.5545,-82.1715,1.8,18.18,2 
SCCF RECON,ioos:station:SCCF:51:1,2012-01-10T05:00:00Z,26.5545,-82.1715,1.8,18.17,2 
SCCF RECON,ioos:station:SCCF:51:1,2012-01-10T06:00:00Z,26.5545,-82.1715,1.8,18.28,2 
SCCF RECON,ioos:station:SCCF:51:1,2012-01-10T07:00:00Z,26.5545,-82.1715,1.8,18.38,2 
SCCF RECON,ioos:station:SCCF:51:1,2012-01-10T08:00:00Z,26.5545,-82.1715,1.8,18.34,2 
SCCF RECON,ioos:station:SCCF:51:1,2012-01-10T09:00:00Z,26.5545,-82.1715,1.8,18.01,2 
SCCF RECON,ioos:station:SCCF:51:1,2012-01-10T10:00:00Z,26.5545,-82.1715,1.8,17.94,2 
SCCF RECON,ioos:station:SCCF:51:1,2012-01-10T11:00:00Z,26.5545,-82.1715,1.8,17.91,2 
SCCF RECON,ioos:station:SCCF:51:1,2012-01-10T12:00:00Z,26.5545,-82.1715,1.8,17.83,2 
SCCF RECON,ioos:station:SCCF:51:1,2012-01-10T13:00:00Z,26.5545,-82.1715,1.8,17.98,2 
SCCF RECON,ioos:station:SCCF:51:1,2012-01-10T14:00:00Z,26.5545,-82.1715,1.8,18.13,2 
SCCF RECON,ioos:station:SCCF:51:1,2012-01-10T15:00:00Z,26.5545,-82.1715,1.8,18.21,2 
SCCF RECON,ioos:station:SCCF:51:1,2012-01-10T16:00:00Z,26.5545,-82.1715,1.8,18.12,2 
SCCF RECON,ioos:station:SCCF:51:1,2012-01-10T17:00:00Z,26.5545,-82.1715,1.8,18.35,2 
SCCF RECON,ioos:station:SCCF:51:1,2012-01-10T18:00:00Z,26.5545,-82.1715,1.8,18.41,2 
SCCF RECON,ioos:station:SCCF:51:1,2012-01-10T19:00:00Z,26.5545,-82.1715,1.8,18.5,2 
SCCF RECON,ioos:station:SCCF:51:1,2012-01-10T20:00:00Z,26.5545,-82.1715,1.8,18.65,2 
SCCF RECON,ioos:station:SCCF:51:1,2012-01-10T21:00:00Z,26.5545,-82.1715,1.8,18.59,2 
SCCF RECON,ioos:station:SCCF:51:1,2012-01-10T22:00:00Z,26.5545,-82.1715,1.8,18.64,2 
SCCF RECON,ioos:station:SCCF:51:1,2012-01-10T23:00:00Z,26.5545,-82.1715,1.8,18.55,2 
SCCF RECON,ioos:station:SCCF:51:1,2012-01-11T00:00:00Z,26.5545,-82.1715,1.8,18.6,2 
SCCF RECON,ioos:station:SCCF:51:1,2012-01-11T01:00:00Z,26.5545,-82.1715,1.8,18.6,2 
SCCF RECON,ioos:station:SCCF:51:1,2012-01-11T02:00:00Z,26.5545,-82.1715,1.8,18.69,2 
SCCF RECON,ioos:station:SCCF:51:1,2012-01-11T03:00:00Z,26.5545,-82.1715,1.8,18.8,2 
SCCF RECON,ioos:station:SCCF:51:1,2012-01-11T04:00:00Z,26.5545,-82.1715,1.8,18.72,2 
SCCF RECON,ioos:station:SCCF:51:1,2012-01-11T05:00:00Z,26.5545,-82.1715,1.8,18.61,2 
SCCF RECON,ioos:station:SCCF:51:1,2012-01-11T06:00:00Z,26.5545,-82.1715,1.8,18.76,2 
SCCF RECON,ioos:station:SCCF:51:1,2012-01-11T07:00:00Z,26.5545,-82.1715,1.8,18.51,2 
SCCF RECON,ioos:station:SCCF:51:1,2012-01-11T08:00:00Z,26.5545,-82.1715,1.8,18.74,2 
SCCF RECON,ioos:station:SCCF:51:1,2012-01-11T09:00:00Z,26.5545,-82.1715,1.8,18.64,2 
SCCF RECON,ioos:station:SCCF:51:1,2012-01-11T10:00:00Z,26.5545,-82.1715,1.8,18.58,2 
SCCF RECON,ioos:station:SCCF:51:1,2012-01-11T11:00:00Z,26.5545,-82.1715,1.8,18.47,2 
SCCF RECON,ioos:station:SCCF:51:1,2012-01-11T12:00:00Z,26.5545,-82.1715,1.8,18.21,2 
SCCF RECON,ioos:station:SCCF:51:1,2012-01-11T13:00:00Z,26.5545,-82.1715,1.8,18.19,2 
SCCF RECON,ioos:station:SCCF:51:1,2012-01-11T14:00:00Z,26.5545,-82.1715,1.8,18.28,2 
SCCF RECON,ioos:station:SCCF:51:1,2012-01-11T15:00:00Z,26.5545,-82.1715,1.8,18.33,2 
SCCF RECON,ioos:station:SCCF:51:1,2012-01-11T16:00:00Z,26.5545,-82.1715,1.8,18.55,2 
SCCF RECON,ioos:station:SCCF:51:1,2012-01-11T17:00:00Z,26.5545,-82.1715,1.8,18.67,2 
SCCF RECON,ioos:station:SCCF:51:1,2012-01-11T18:00:00Z,26.5545,-82.1715,1.8,18.81,2 
SCCF RECON,ioos:station:SCCF:51:1,2012-01-11T19:00:00Z,26.5545,-82.1715,1.8,18.85,2 
SCCF RECON,ioos:station:SCCF:51:1,2012-01-11T20:00:00Z,26.5545,-82.1715,1.8,18.88,2 
SCCF RECON,ioos:station:SCCF:51:1,2012-01-11T21:00:00Z,26.5545,-82.1715,1.8,18.89,2 
SCCF RECON,ioos:station:SCCF:51:1,2012-01-11T22:00:00Z,26.5545,-82.1715,1.8,18.65,2 
SCCF RECON,ioos:station:SCCF:51:1,2012-01-11T23:00:00Z,26.5545,-82.1715,1.8,18.49,2 
SCCF RECON,ioos:station:SCCF:51:1,2012-01-12T00:00:00Z,26.5545,-82.1715,1.8,18.44,2 
SCCF RECON,ioos:station:SCCF:51:1,2012-01-12T01:00:00Z,26.5545,-82.1715,1.8,18.56,2 
SCCF RECON,ioos:station:SCCF:51:1,2012-01-12T02:00:00Z,26.5545,-82.1715,1.8,18.76,2 
SCCF RECON,ioos:station:SCCF:51:1,2012-01-12T03:00:00Z,26.5545,-82.1715,1.8,18.84,2 
SCCF RECON,ioos:station:SCCF:51:1,2012-01-12T04:00:00Z,26.5545,-82.1715,1.8,18.87,2 
SCCF RECON,ioos:station:SCCF:51:1,2012-01-12T05:00:00Z,26.5545,-82.1715,1.8,19.08,2 
SCCF RECON,ioos:station:SCCF:51:1,2012-01-12T06:00:00Z,26.5545,-82.1715,1.8,19.09,2 
SCCF RECON,ioos:station:SCCF:51:1,2012-01-12T07:00:00Z,26.5545,-82.1715,1.8,19.06,2 
SCCF RECON,ioos:station:SCCF:51:1,2012-01-12T08:00:00Z,26.5545,-82.1715,1.8,19.07,2 
SCCF RECON,ioos:station:SCCF:51:1,2012-01-12T09:00:00Z,26.5545,-82.1715,1.8,18.87,2 
SCCF RECON,ioos:station:SCCF:51:1,2012-01-12T10:00:00Z,26.5545,-82.1715,1.8,18.73,2 
SCCF RECON,ioos:station:SCCF:51:1,2012-01-12T11:00:00Z,26.5545,-82.1715,1.8,18.64,2 
SCCF RECON,ioos:station:SCCF:51:1,2012-01-12T12:00:00Z,26.5545,-82.1715,1.8,18.59,2 
SCCF RECON,ioos:station:SCCF:51:1,2012-01-12T13:00:00Z,26.5545,-82.1715,1.8,18.67,2 
SCCF RECON,ioos:station:SCCF:51:1,2012-01-12T14:00:00Z,26.5545,-82.1715,1.8,18.72,2 
SCCF RECON,ioos:station:SCCF:51:1,2012-01-12T15:00:00Z,26.5545,-82.1715,1.8,18.7,2 
SCCF RECON,ioos:station:SCCF:51:1,2012-01-12T16:00:00Z,26.5545,-82.1715,1.8,18.83,2 